Última Atualização: 20:35 - 03/09/2026

Relatório Meteorológico da Estação Guaratiba
Dia Hora Direção Vento (graus) Velocidade Vento (Km/h) Temperatura (celsius) Pressão (hPa) Umidade (%)
03/09/2026 20:30:00 221 2,1 20,0 1010,4 100
03/09/2026 20:15:00 - 0,0 20,1 1010,4 100
03/09/2026 20:00:00 - 0,0 20,5 1010,2 100
03/09/2026 19:45:00 - 0,0 20,5 1010,2 100
03/09/2026 19:30:00 - 0,0 20,8 1009,9 100
03/09/2026 19:15:00 225 5,6 21,4 1009,9 100
03/09/2026 19:00:00 225 5,6 21,4 1009,7 99
03/09/2026 18:45:00 225 6,4 21,5 1009,7 99
03/09/2026 18:30:00 225 8,5 21,7 1009,7 98
03/09/2026 18:15:00 235 4,2 21,8 1009,7 98
03/09/2026 18:00:00 253 4,9 21,9 1009,7 97
03/09/2026 17:45:00 300 5,6 22,1 1009,8 97
03/09/2026 17:30:00 315 4,2 22,4 1009,8 96
03/09/2026 17:15:00 313 6,7 22,8 1009,8 95
03/09/2026 17:00:00 304 7,1 23,0 1009,4 93
03/09/2026 16:45:00 297 7,1 23,3 1009,8 92
03/09/2026 16:30:00 293 5,3 24,0 1009,8 90
03/09/2026 16:15:00 287 10,9 24,3 1009,7 89
03/09/2026 16:00:00 289 4,2 24,4 1009,8 88
03/09/2026 15:45:00 289 10,2 24,9 1009,5 87
03/09/2026 15:30:00 291 12,0 25,2 1009,8 86
03/09/2026 15:15:00 288 9,5 25,5 1009,8 86
03/09/2026 15:00:00 292 7,1 25,4 1009,8 86
03/09/2026 14:45:00 293 7,4 25,7 1010,0 85
03/09/2026 14:30:00 293 6,4 25,7 1010,3 85
03/09/2026 14:15:00 292 8,8 25,9 1010,5 84
03/09/2026 14:00:00 293 7,4 26,7 1010,5 82
03/09/2026 13:45:00 294 4,9 27,3 1011,0 81
03/09/2026 13:30:00 294 6,7 27,8 1011,3 79
03/09/2026 13:15:00 - 0,0 28,8 1011,5 74
03/09/2026 13:00:00 292 7,8 28,5 1012,0 77
03/09/2026 12:45:00 - 0,0 28,0 1012,0 76
03/09/2026 12:30:00 288 12,3 26,8 1012,2 80
03/09/2026 12:15:00 - 0,0 28,3 1012,5 79
03/09/2026 12:00:00 286 8,1 27,3 1012,8 84
03/09/2026 11:45:00 290 6,0 27,1 1013,0 85
03/09/2026 11:30:00 - 0,0 27,1 1013,5 90
03/09/2026 11:15:00 291 8,5 26,5 1013,7 91
03/09/2026 11:00:00 290 7,8 26,1 1014,3 93
03/09/2026 10:45:00 - 0,0 26,1 1014,7 95
03/09/2026 10:30:00 - 0,0 24,3 1014,7 100
03/09/2026 10:15:00 - 0,0 23,3 1015,2 100
03/09/2026 10:00:00 296 7,4 22,5 1015,3 100
03/09/2026 09:45:00 - 0,0 22,4 1015,4 100
03/09/2026 09:30:00 308 5,3 22,4 1015,6 100
03/09/2026 09:15:00 314 7,8 23,0 1015,4 100
03/09/2026 09:00:00 - 0,0 22,9 1015,6 100
03/09/2026 08:45:00 - 0,0 21,8 1015,9 100
03/09/2026 08:30:00 - 0,0 21,7 1015,8 100